Regional Weather Roundup
Issued by NWS Little Rock, AR

Home | Current Version | Previous Version | Graphics & Text | Print | Product List | Glossary On
Versions: 1 2 3 4 5 6 7 8 9 10 11 12 13 14 15 16 17 18 19 20 21 22 23 24 25 26 27 28 29 30 31 32 33 34 35 36 37 38 39 40 41 42 43 44 45 46 47 48 49 50
000
ASUS44 KLZK 240705
RWRLZK

WEATHER ROUNDUP FOR ARKANSAS
NATIONAL WEATHER SERVICE LITTLE ROCK AR
200 AM CDT THU JUL 24 2014

NOTE: "FAIR" INDICATES FEW OR NO CLOUDS BELOW 12,000 FEET WITH NO
SIGNIFICANT WEATHER AND/OR OBSTRUCTIONS TO VISIBILITY.

ARZ001-003-010-029-240800-
NORTHWEST ARKANSAS

CITY           SKY/WX    TMP DP  RH WIND       PRES   REMARKS
FAYETTEVILLE   CLEAR     65  65 100 CALM      30.08F
FORT SMITH     PTCLDY    69  67  93 W3        30.03F
HARRISON       FOG       69  69 100 NW6       30.08S VSB 1/4
BENTONVILLE    CLEAR     66  63  88 CALM      30.09S
ROGERS         CLEAR     68  65  90 CALM      30.09F
SILOAM SPGS    CLEAR     66  61  82 N3        30.09F
HIGHFILL       CLEAR     66  65  96 CALM      30.08S
$$

ARZ004-005-016-240800-
NORTH CENTRAL ARKANSAS

CITY           SKY/WX    TMP DP  RH WIND       PRES   REMARKS
BATESVILLE     CLOUDY    68  68 100 CALM      30.04S
FLIPPIN        CLOUDY    70  68  94 NW3       30.06S
MTN HOME       MOCLDY    67  67 100 CALM      30.05S FOG
$$

ARZ040-041-240800-
WEST CENTRAL ARKANSAS

CITY           SKY/WX    TMP DP  RH WIND       PRES   REMARKS
MENA           PTCLDY    70  68  94 CALM      30.04S
MOUNT IDA      FOG       66  65  96 CALM      30.01S VSB 1
$$

ARZ009-017-025-026-028-240800-
NORTHEAST ARKANSAS

CITY           SKY/WX    TMP DP  RH WIND       PRES   REMARKS
CORNING        CLOUDY    73  68  83 NE14      30.04S
JONESBORO      MOCLDY    73  69  87 NE5       30.01F
NEWPORT        CLOUDY    72  71  96 N5        30.03S
WALNUT RIDGE   MOCLDY    73  70  88 N7        30.01F
BLYTHEVILLE    CLOUDY    73  72  96 N6        30.02S
$$

ARZ022-023-033-042-044-240800-
CENTRAL ARKANSAS

CITY           SKY/WX    TMP DP  RH WIND       PRES   REMARKS
LITTLE ROCK    PTCLDY    70  67  90 NE6       30.01R
N LITTLE ROCK    N/A     69  69 100 E6        30.01R
HOT SPRINGS    CLEAR     69  67  93 CALM      30.01R
RUSSELLVILLE   PTCLDY    70  68  93 CALM      30.02F
CLINTON        FAIR      66  66 100 CALM      30.03S FOG
$$

ARZ036-240800-
EAST ARKANSAS

CITY           SKY/WX    TMP DP  RH WIND       PRES   REMARKS
WEST MEMPHIS   CLEAR     69  68  96 E3        30.00S
$$

ARZ050-053-066-070-073-240800-
SOUTHWEST ARKANSAS

CITY           SKY/WX    TMP DP  RH WIND       PRES   REMARKS
ARKADELPHIA    FOG       70  70 100 CALM      30.01R VSB 1/4
CAMDEN         FOG       68  66  94 CALM      30.00S VSB 1/4
TEXARKANA      CLOUDY    70  69  97 NE3       30.00S
EL DORADO      FOG       68  68 100 NW5       30.00S VSB 1/2
$$

ARZ056-057-069-240800-
SOUTHEAST ARKANSAS

CITY           SKY/WX    TMP DP  RH WIND       PRES   REMARKS
PINE BLUFF     PTCLDY    68  67  96 CALM      30.01F FOG
STUTTGART      PTCLDY    72  66  83 E6        30.01F
MONTICELLO     CLOUDY    72  69  90 VRB3      29.99S

$$





USA.gov is the U.S. government's official web portal to all federal, state and local government web resources and services.